Location: Unspecified
(45.3712°N, 0.6436°E)
Time: 12:05:13
(UTC+02:00)

ISS - Pass Details

Date: 19 July 2018
Orbit: 402 x 408 km, 51.6° (Epoch: 17 July)

Event Time Altitude Azimuth Distance (km) Brightness Sun altitude
Rises 04:41:01 0° 299° (WNW) 2,332 -0.1 -14.7°
Reaches altitude 10° 04:43:08 10° 304° (NW) 1,470 -1.0 -14.5°
Maximum altitude 04:46:23 56° 24° (NNE) 490 -3.1 -14.1°
Drops below altitude 10° 04:49:38 10° 104° (ESE) 1,466 -0.7 -13.8°
Sets 04:51:44 0° 108° (ESE) 2,325 0.3 -13.6°
